| time (UTC) | temp F | wind direction | speed knots | gust knots | rain 1hr in | rain 24hr in | rain mn in | humidity % | barometer mb |
| 20260509044156 | 54 | 91 | 0.0 | 2.6 | 0.00 | 0.00 | 0.00 | 71 | 1012.5 |
| 20260509043156 | 55 | 92 | 0.0 | 0.9 | 0.00 | 0.00 | 0.00 | 69 | 1012.8 |
| 20260509042156 | 55 | 92 | 0.0 | 0.9 | 0.00 | 0.00 | 0.00 | 69 | 1012.9 |
| 20260509041155 | 56 | 92 | 0.0 | 0.9 | 0.00 | 0.00 | 0.00 | 67 | 1012.9 |
| 20260509040150 | 57 | 92 | 0.0 | 0.9 | 0.00 | 0.00 | 0.00 | 65 | 1013.1 |
| 20260509035634 | 57 | 92 | 0.0 | 0.9 | 0.00 | 0.00 | 0.00 | 64 | 1013.1 |
| 20260509034149 | 58 | 92 | 0.0 | 0.9 | 0.00 | 0.00 | 0.00 | 63 | 1013.1 |
| 20260509033150 | 58 | 91 | 0.0 | 0.9 | 0.00 | 0.00 | 0.00 | 62 | 1013.1 |
| 20260509032148 | 58 | 91 | 0.0 | 1.7 | 0.00 | 0.00 | 0.00 | 63 | 1013.1 |
| 20260509031150 | 58 | 92 | 0.0 | 1.7 | 0.00 | 0.00 | 0.00 | 60 | 1013.0 |
| 20260509030148 | 59 | 85 | 0.9 | 2.6 | 0.00 | 0.00 | 0.00 | 58 | 1013.0 |
| 20260509025148 | 59 | 91 | 0.9 | 3.5 | 0.00 | 0.00 | 0.00 | 60 | 1012.9 |
| 20260509024623 | 60 | 280 | 0.0 | 0.9 | 0.00 | 0.00 | 0.00 | 57 | 1012.8 |
| 20260509023632 | 60 | 279 | 0.0 | 0.9 | 0.00 | 0.00 | 0.00 | 55 | 1012.7 |
| 20260509022142 | 62 | 280 | 0.0 | 0.9 | 0.00 | 0.00 | 0.00 | 51 | 1012.7 |
| 20260509021144 | 63 | 279 | 0.0 | 0.9 | 0.00 | 0.00 | 0.00 | 48 | 1012.5 |
| 20260509020142 | 63 | 279 | 0.0 | 1.7 | 0.00 | 0.00 | 0.00 | 48 | 1012.5 |
| 20260509015142 | 64 | 272 | 0.0 | 3.5 | 0.00 | 0.00 | 0.00 | 47 | 1012.3 |
| 20260509014143 | 65 | 274 | 0.0 | 2.6 | 0.00 | 0.00 | 0.00 | 47 | 1012.3 |
| 20260509013141 | 65 | 256 | 0.0 | 1.7 | 0.00 | 0.00 | 0.00 | 46 | 1012.2 |
| 20260509012140 | 66 | 255 | 1.7 | 3.5 | 0.00 | 0.00 | 0.00 | 45 | 1012.2 |
| 20260509011630 | 66 | 264 | 2.6 | 5.2 | 0.00 | 0.00 | 0.00 | 45 | 1012.2 |
| 20260509010135 | 67 | 286 | 1.7 | 4.3 | 0.00 | 0.00 | 0.00 | 43 | 1012.1 |
| 20260509005135 | 68 | 278 | 2.6 | 5.2 | 0.00 | 0.00 | 0.00 | 43 | 1012.1 |
| 20260509004135 | 68 | 260 | 2.6 | 6.1 | 0.00 | 0.00 | 0.00 | 42 | 1012.2 |
| 20260509003136 | 69 | 250 | 1.7 | 5.2 | 0.00 | 0.00 | 0.00 | 42 | 1012.2 |
| 20260509002134 | 69 | 210 | 1.7 | 7.0 | 0.00 | 0.00 | 0.00 | 41 | 1012.1 |
| 20260509001614 | 69 | 295 | 2.6 | 4.3 | 0.00 | 0.00 | 0.00 | 40 | 1012.1 |
| 20260509000134 | 69 | 314 | 3.5 | 6.1 | 0.00 | 0.00 | 0.00 | 41 | 1012.2 |
| 20260508235623 | 69 | 300 | 3.5 | 7.8 | 0.00 | 0.00 | 0.00 | 42 | 1012.2 |
| 20260508234618 | 69 | 295 | 3.5 | 9.6 | 0.00 | 0.00 | 0.00 | 41 | 1012.2 |
| 20260508233613 | 70 | 278 | 1.7 | 5.2 | 0.00 | 0.00 | 0.00 | 41 | 1012.2 |
| 20260508232129 | 70 | 252 | 3.5 | 7.8 | 0.00 | 0.00 | 0.00 | 41 | 1012.3 |
| 20260508231615 | 70 | 294 | 1.7 | 8.7 | 0.00 | 0.00 | 0.00 | 42 | 1012.2 |
| 20260508230617 | 69 | 326 | 3.5 | 7.0 | 0.00 | 0.00 | 0.00 | 42 | 1012.3 |
| 20260508225129 | 69 | 330 | 4.3 | 7.8 | 0.00 | 0.00 | 0.00 | 42 | 1012.3 |
| 20260508224608 | 69 | 13 | 2.6 | 7.8 | 0.00 | 0.00 | 0.00 | 42 | 1012.3 |
| 20260508223129 | 69 | 301 | 3.5 | 7.8 | 0.00 | 0.00 | 0.00 | 41 | 1012.4 |
| 20260508222129 | 69 | 300 | 3.5 | 7.8 | 0.00 | 0.00 | 0.00 | 41 | 1012.4 |
| 20260508221129 | 69 | 323 | 2.6 | 7.8 | 0.00 | 0.00 | 0.00 | 40 | 1012.7 |
| 20260508220123 | 68 | 74 | 2.6 | 7.0 | 0.00 | 0.00 | 0.00 | 44 | 1012.8 |
| 20260508215121 | 69 | 67 | 1.7 | 4.3 | 0.00 | 0.00 | 0.00 | 41 | 1012.9 |
| 20260508214123 | 68 | 321 | 3.5 | 7.0 | 0.00 | 0.00 | 0.00 | 39 | 1013.0 |
| 20260508213123 | 68 | 340 | 5.2 | 15.6 | 0.00 | 0.00 | 0.00 | 43 | 1013.1 |
| 20260508212121 | 67 | 347 | 2.6 | 7.0 | 0.00 | 0.00 | 0.00 | 43 | 1013.0 |
| 20260508211123 | 68 | 26 | 1.7 | 7.0 | 0.00 | 0.00 | 0.00 | 42 | 1013.2 |
| 20260508210122 | 67 | 354 | 2.6 | 8.7 | 0.00 | 0.00 | 0.00 | 43 | 1013.4 |
| 20260508205122 | 67 | 272 | 3.5 | 8.7 | 0.00 | 0.00 | 0.00 | 43 | 1013.5 |
| 20260508204123 | 66 | 311 | 5.2 | 8.7 | 0.00 | 0.00 | 0.00 | 43 | 1013.6 |
| 20260508203117 | 66 | 70 | 4.3 | 8.7 | 0.00 | 0.00 | 0.00 | 44 | 1013.7 |
| 20260508202117 | 66 | 288 | 4.3 | 8.7 | 0.00 | 0.00 | 0.00 | 47 | 1013.7 |
| 20260508201116 | 66 | 324 | 4.3 | 9.6 | 0.00 | 0.00 | 0.00 | 46 | 1013.9 |
| 20260508200116 | 65 | 304 | 3.5 | 8.7 | 0.00 | 0.00 | 0.00 | 50 | 1014.1 |
| 20260508195115 | 65 | 259 | 4.3 | 9.6 | 0.00 | 0.00 | 0.00 | 48 | 1014.2 |
| 20260508194117 | 65 | 56 | 3.5 | 8.7 | 0.00 | 0.00 | 0.00 | 48 | 1014.3 |
| 20260508193115 | 64 | 330 | 4.3 | 9.6 | 0.00 | 0.00 | 0.00 | 51 | 1014.3 |
| 20260508192555 | 64 | 326 | 6.1 | 10.4 | 0.00 | 0.00 | 0.00 | 48 | 1014.4 |
| 20260508191117 | 64 | 287 | 4.3 | 9.6 | 0.00 | 0.00 | 0.00 | 49 | 1014.6 |
| 20260508190601 | 64 | 275 | 4.3 | 8.7 | 0.00 | 0.00 | 0.00 | 53 | 1014.5 |
| 20260508185117 | 63 | 271 | 1.7 | 5.2 | 0.00 | 0.00 | 0.00 | 50 | 1014.8 |
| 20260508184117 | 62 | 261 | 4.3 | 7.8 | 0.00 | 0.00 | 0.00 | 52 | 1015.0 |
| 20260508183116 | 62 | 323 | 3.5 | 7.8 | 0.00 | 0.00 | 0.00 | 50 | 1015.0 |
| 20260508182609 | 62 | 247 | 2.6 | 6.1 | 0.00 | 0.00 | 0.00 | 52 | 1015.1 |
| 20260508181117 | 62 | 259 | 3.5 | 6.1 | 0.00 | 0.00 | 0.00 | 52 | 1015.1 |
| 20260508180116 | 62 | 174 | 1.7 | 6.1 | 0.00 | 0.00 | 0.00 | 52 | 1015.3 |
| 20260508175118 | 62 | 198 | 2.6 | 7.0 | 0.00 | 0.00 | 0.00 | 54 | 1015.5 |
| 20260508174117 | 61 | 224 | 2.6 | 9.6 | 0.00 | 0.00 | 0.00 | 52 | 1015.5 |
| 20260508173116 | 61 | 274 | 3.5 | 8.7 | 0.00 | 0.00 | 0.00 | 53 | 1015.5 |
| 20260508172605 | 61 | 269 | 2.6 | 7.0 | 0.00 | 0.00 | 0.00 | 52 | 1015.5 |
| 20260508171118 | 60 | 212 | 5.2 | 9.6 | 0.00 | 0.00 | 0.00 | 54 | 1015.6 |
| 20260508170116 | 61 | 298 | 4.3 | 8.7 | 0.00 | 0.00 | 0.00 | 54 | 1015.7 |
| 20260508165551 | 62 | 267 | 1.7 | 7.8 | 0.00 | 0.00 | 0.00 | 54 | 1015.7 |
| 20260508164114 | 60 | 259 | 1.7 | 7.0 | 0.00 | 0.00 | 0.00 | 54 | 1015.7 |
| 20260508163114 | 59 | 247 | 3.5 | 8.7 | 0.00 | 0.00 | 0.00 | 53 | 1015.8 |
| 20260508162114 | 59 | 303 | 3.5 | 7.8 | 0.00 | 0.00 | 0.00 | 57 | 1015.7 |
| 20260508161114 | 59 | 304 | 4.3 | 7.8 | 0.00 | 0.00 | 0.00 | 56 | 1015.7 |
| 20260508160113 | 58 | 290 | 4.3 | 8.7 | 0.00 | 0.00 | 0.00 | 61 | 1015.8 |
| 20260508155114 | 58 | 316 | 4.3 | 8.7 | 0.00 | 0.00 | 0.00 | 64 | 1015.7 |
| 20260508154547 | 57 | 307 | 2.6 | 7.0 | 0.00 | 0.00 | 0.00 | 67 | 1015.7 |
| 20260508153552 | 58 | 270 | 5.2 | 10.4 | 0.00 | 0.00 | 0.00 | 64 | 1015.6 |
| 20260508152552 | 57 | 296 | 5.2 | 8.7 | 0.00 | 0.00 | 0.00 | 65 | 1015.6 |
| 20260508151109 | 56 | 309 | 5.2 | 9.6 | 0.00 | 0.00 | 0.00 | 67 | 1015.7 |
| 20260508150109 | 55 | 338 | 5.2 | 9.6 | 0.00 | 0.00 | 0.00 | 68 | 1015.5 |
| 20260508145108 | 55 | 331 | 5.2 | 8.7 | 0.00 | 0.00 | 0.00 | 69 | 1015.5 |
| 20260508144107 | 55 | 325 | 5.2 | 7.8 | 0.00 | 0.00 | 0.00 | 69 | 1015.6 |
| 20260508143107 | 55 | 335 | 6.1 | 10.4 | 0.00 | 0.00 | 0.00 | 70 | 1015.8 |
| 20260508142107 | 54 | 25 | 5.2 | 9.6 | 0.00 | 0.00 | 0.00 | 74 | 1015.7 |
| 20260508141107 | 52 | 325 | 4.3 | 6.1 | 0.00 | 0.00 | 0.00 | 79 | 1015.9 |
| 20260508140546 | 51 | 322 | 3.5 | 5.2 | 0.00 | 0.00 | 0.00 | 80 | 1016.0 |
| 20260508135107 | 49 | 28 | 3.5 | 6.1 | 0.00 | 0.00 | 0.00 | 82 | 1016.2 |
| 20260508134109 | 49 | 355 | 2.6 | 4.3 | 0.00 | 0.00 | 0.00 | 84 | 1016.3 |
| 20260508133107 | 47 | 330 | 1.7 | 3.5 | 0.00 | 0.00 | 0.00 | 85 | 1016.5 |
| 20260508131548 | 44 | 33 | 3.5 | 5.2 | 0.00 | 0.00 | 0.00 | 88 | 1016.3 |
| 20260508130107 | 44 | 24 | 3.5 | 5.2 | 0.00 | 0.00 | 0.00 | 88 | 1016.5 |
| 20260508125107 | 44 | 25 | 1.7 | 2.6 | 0.00 | 0.00 | 0.00 | 89 | 1016.5 |
| 20260508124108 | 44 | 25 | 0.9 | 2.6 | 0.00 | 0.00 | 0.00 | 89 | 1016.5 |
| 20260508123102 | 44 | 86 | 0.9 | 2.6 | 0.00 | 0.00 | 0.00 | 89 | 1016.6 |
| 20260508122101 | 44 | 86 | 1.7 | 5.2 | 0.00 | 0.00 | 0.00 | 89 | 1016.5 |
| 20260508121102 | 44 | 86 | 0.9 | 2.6 | 0.00 | 0.00 | 0.00 | 90 | 1016.6 |
| 20260508115102 | 42 | 118 | 0.0 | 0.9 | 0.00 | 0.00 | 0.00 | 89 | 1016.0 |
| 20260508114100 | 42 | 118 | 1.7 | 3.5 | 0.00 | 0.00 | 0.00 | 90 | 1015.6 |
| 20260508113102 | 42 | 79 | 2.6 | 5.2 | 0.00 | 0.00 | 0.00 | 90 | 1015.3 |
| 20260508112102 | 41 | 82 | 0.9 | 4.3 | 0.00 | 0.00 | 0.00 | 90 | 1015.3 |
| 20260508111103 | 42 | 81 | 0.9 | 3.5 | 0.00 | 0.00 | 0.00 | 90 | 1015.3 |
| 20260508110056 | 42 | 130 | 0.0 | 0.9 | 0.00 | 0.00 | 0.00 | 90 | 1015.5 |
| 20260508105055 | 42 | 130 | 0.9 | 3.5 | 0.00 | 0.00 | 0.00 | 89 | 1015.3 |
| 20260508104541 | 42 | 159 | 0.9 | 1.7 | 0.00 | 0.00 | 0.00 | 89 | 1015.2 |
| 20260508103531 | 42 | 185 | 0.0 | 2.6 | 0.00 | 0.00 | 0.00 | 89 | 1015.0 |
| 20260508102056 | 42 | 200 | 0.0 | 0.0 | 0.00 | 0.00 | 0.00 | 88 | 1014.9 |
| 20260508101056 | 42 | 201 | 0.0 | 1.7 | 0.00 | 0.00 | 0.00 | 88 | 1014.8 |
| 20260508100055 | 43 | 75 | 0.0 | 0.9 | 0.00 | 0.00 | 0.00 | 87 | 1014.4 |
| 20260508095055 | 43 | 75 | 0.0 | 0.9 | 0.00 | 0.00 | 0.00 | 87 | 1014.2 |
| 20260508094539 | 43 | 75 | 1.7 | 2.6 | 0.00 | 0.00 | 0.00 | 87 | 1014.2 |
| 20260508093050 | 44 | 102 | 0.9 | 1.7 | 0.00 | 0.00 | 0.00 | 87 | 1014.2 |
| 20260508092050 | 44 | 51 | 0.9 | 1.7 | 0.00 | 0.00 | 0.00 | 87 | 1014.2 |
| 20260508091048 | 44 | 54 | 0.9 | 1.7 | 0.00 | 0.00 | 0.00 | 88 | 1014.2 |
| 20260508090049 | 43 | 54 | 0.9 | 3.5 | 0.00 | 0.00 | 0.00 | 88 | 1014.3 |
| 20260508085047 | 44 | 78 | 0.0 | 1.7 | 0.00 | 0.00 | 0.00 | 88 | 1014.5 |
| 20260508084047 | 44 | 78 | 0.9 | 2.6 | 0.00 | 0.00 | 0.00 | 89 | 1014.6 |
| 20260508083047 | 44 | 92 | 0.9 | 1.7 | 0.00 | 0.00 | 0.00 | 89 | 1014.9 |
| 20260508082047 | 44 | 89 | 0.9 | 3.5 | 0.00 | 0.00 | 0.00 | 89 | 1014.8 |
| 20260508081048 | 44 | 170 | 0.0 | 0.0 | 0.00 | 0.00 | 0.00 | 89 | 1014.8 |
| 20260508080047 | 45 | 170 | 0.0 | 0.0 | 0.00 | 0.01 | 0.00 | 88 | 1015.2 |
| 20260508080025 | 45 | 171 | 0.0 | 0.9 | 0.00 | 0.01 | 0.00 | 88 | 1015.2 |
| 20260508074046 | 46 | 170 | 0.9 | 1.7 | 0.00 | 0.01 | 0.00 | 89 | 1015.2 |
| 20260508073046 | 46 | 122 | 0.9 | 1.7 | 0.00 | 0.01 | 0.00 | 88 | 1015.3 |
| 20260508072529 | 46 | 207 | 0.0 | 1.7 | 0.00 | 0.01 | 0.00 | 88 | 1015.2 |
| 20260508071047 | 47 | 39 | 0.0 | 0.9 | 0.00 | 0.01 | 0.00 | 87 | 1015.1 |
| 20260508070046 | 48 | 39 | 0.0 | 0.9 | 0.00 | 0.01 | 0.00 | 85 | 1015.1 |
| 20260508065046 | 49 | 39 | 0.0 | 1.7 | 0.00 | 0.01 | 0.00 | 84 | 1015.0 |
| 20260508064046 | 49 | 39 | 0.0 | 0.9 | 0.00 | 0.01 | 0.00 | 83 | 1014.8 |
| 20260508063046 | 50 | 39 | 1.7 | 1.7 | 0.00 | 0.01 | 0.00 | 82 | 1014.6 |
| 20260508062527 | 50 | 39 | 0.0 | 1.7 | 0.00 | 0.01 | 0.00 | 81 | 1014.5 |
| 20260508062013 | 51 | 311 | 0.0 | 2.6 | 0.00 | 0.01 | 0.00 | 81 | 1014.4 |
| 20260508060047 | 52 | 336 | 0.9 | 2.6 | 0.00 | 0.01 | 0.00 | 75 | 1014.2 |
| 20260508055046 | 52 | 340 | 0.9 | 3.5 | 0.00 | 0.01 | 0.01 | 74 | 1014.3 |
| 20260508054530 | 53 | 278 | 1.7 | 5.2 | 0.00 | 0.01 | 0.01 | 75 | 1014.4 |
| 20260508053525 | 54 | 87 | 1.7 | 4.3 | 0.00 | 0.01 | 0.01 | 72 | 1015.1 |
| 20260508052042 | 54 | 175 | 3.5 | 7.8 | 0.00 | 0.01 | 0.01 | 69 | 1015.3 |
| 20260508051042 | 55 | 117 | 1.7 | 6.1 | 0.00 | 0.01 | 0.01 | 67 | 1014.9 |
| 20260508050040 | 54 | 129 | 1.7 | 2.6 | 0.00 | 0.01 | 0.01 | 67 | 1014.3 |